KT4FD Weather Reports


time (UTC)temp
C
wind
direction
speed
KPH
gust
KPH
rain 1hr
cm
rain 24hr
cm
rain mn
cm
humidity
%
barometer
mb
20260905210003 30 355 4.8 12.9 0.00 0.00 0.00 69 1013.2
20260905205003 30 355 3.2 4.8 0.00 0.00 0.00 68 1013.1
20260905204003 31 355 3.2 9.7 0.00 0.00 0.00 65 1012.9
20260905203003 32 355 3.2 14.5 0.00 0.00 0.00 63 1012.9
20260905202003 33 355 1.6 14.5 0.00 0.00 0.00 57 1013.1
20260905201003 33 348 3.2 12.9 0.00 0.00 0.00 58 1013.2
20260905164003 31 0 1.6 12.9 0.00 0.00 0.00 63 1014.8
20260905163003 31 0 4.8 9.7 0.00 0.00 0.00 64 1015.1
20260905162003 31 355 3.2 14.5 0.00 0.00 0.00 66 1015.0
20260905161003 31 355 3.2 16.1 0.00 0.00 0.00 66 1015.1
20260905160003 31 355 12.9 19.3 0.00 0.00 0.00 65 1015.3
20260905155002 30 329 3.2 12.9 0.00 0.00 0.00 66 1015.4
20260905133003 23 314 0.0 0.0 0.00 0.00 0.00 91 1016.3
20260905132003 23 314 0.0 1.6 0.00 0.00 0.00 91 1016.3
20260905131003 22 314 0.0 0.0 0.00 0.00 0.00 91 1016.4
20260905130003 22 314 0.0 0.0 0.00 0.00 0.00 91 1016.3
20260905125003 21 314 0.0 0.0 0.00 0.00 0.00 91 1016.2
20260905124003 21 314 0.0 0.0 0.00 0.00 0.00 91 1016.1
20260905123003 21 314 0.0 0.0 0.00 0.00 0.00 91 1016.3
20260905122003 21 314 0.0 3.2 0.00 0.00 0.00 91 1016.3
20260905121003 21 314 0.0 0.0 0.00 0.00 0.00 91 1016.1
20260905120004 21 314 0.0 0.0 0.00 0.00 0.00 91 1016.1
20260905115002 21 314 0.0 0.0 0.00 0.00 0.00 91 1015.9
20260905114003 21 314 0.0 0.0 0.00 0.00 0.00 91 1015.8
20260905103003 21 314 0.0 0.0 0.00 0.00 0.00 91 1015.3
20260905102003 21 314 0.0 0.0 0.00 0.00 0.00 91 1015.2
20260905101003 21 314 0.0 0.0 0.00 0.00 0.00 91 1015.3
20260905100004 21 314 0.0 0.0 0.00 0.00 0.00 91 1015.1
20260905095003 21 314 0.0 0.0 0.00 0.00 0.00 91 1015.0
20260905094003 21 314 0.0 0.0 0.00 0.00 0.00 91 1015.0
20260905093003 21 314 0.0 0.0 0.00 0.00 0.00 91 1015.0
20260905092003 21 314 0.0 0.0 0.00 0.00 0.00 91 1015.1
20260905091003 21 314 0.0 0.0 0.00 0.00 0.00 91 1015.2
20260905090004 21 314 0.0 0.0 0.00 0.00 0.00 91 1015.1
20260905085003 21 314 0.0 0.0 0.00 0.00 0.00 91 1015.2
20260905084003 21 314 0.0 0.0 0.00 0.00 0.00 91 1015.2
20260905083003 21 314 0.0 0.0 0.00 0.00 0.00 91 1015.2
20260905061003 22 314 0.0 1.6 0.00 0.00 0.00 90 1015.5
20260905060003 22 314 0.0 1.6 0.00 0.00 0.00 90 1015.4
20260905055003 22 314 0.0 1.6 0.00 0.00 0.00 91 1015.5
20260905054003 22 314 0.0 4.8 0.00 0.00 0.00 91 1015.5
20260905053003 22 314 0.0 1.6 0.00 0.00 0.00 91 1015.5
20260905052004 22 314 0.0 0.0 0.00 0.00 0.00 91 1015.7
20260905031004 23 314 0.0 0.0 0.00 0.00 0.00 88 1016.6
20260905030004 23 314 0.0 0.0 0.00 0.00 0.00 88 1016.7
20260905025003 23 314 0.0 1.6 0.00 0.00 0.00 90 1016.9
20260905024004 23 314 0.0 0.0 0.00 0.00 0.00 90 1017.0
20260905023003 23 314 0.0 0.0 0.00 0.00 0.00 90 1016.9
20260905022003 23 314 0.0 0.0 0.00 0.00 0.00 89 1016.8
20260905021004 23 314 0.0 0.0 0.00 0.00 0.00 89 1016.8
20260905010003 25 314 0.0 0.0 0.00 0.00 0.00 87 1016.4
20260905005004 26 314 0.0 0.0 0.00 0.00 0.00 85 1016.2
20260905004004 26 314 0.0 0.0 0.00 0.00 0.00 84 1016.3
20260905003003 26 314 0.0 0.0 0.00 0.00 0.00 83 1016.1